Regional Weather Roundup
Issued by NWS

Home | Current Version | Previous Version | Graphics & Text | Print | Product List | Glossary On
Versions: 1 2 3 4 5 6 7 8 9 10 11 12 13 14 15 16 17 18 19 20 21 22 23 24 25 26 27 28 29 30 31 32 33 34 35 36 37 38 39 40 41 42 43 44 45 46 47 48 49 50
000
ASUS43 KLSX 030759
RWRMO

WEATHER SUMMARY FOR MISSOURI
NATIONAL WEATHER SERVICE SPRINGFIELD MO
300 AM CDT WED JUN 03 2015

NOTE: "FAIR" INDICATES FEW OR NO CLOUDS BELOW 12,000 FEET WITH NO
       SIGNIFICANT WEATHER AND/OR OBSTRUCTIONS TO VISIBILITY.
       CURRENT SKY AND/OR WEATHER CONDITIONS ARE NOT AVAILABLE FOR
       CHILLICOTHE AND FARMINGTON.

MOZ001>031-035>038-043-044-053-054-030900-
...NORTHERN AND WESTERN MISSOURI...

CITY           SKY/WX    TMP DP  RH WIND       PRES   REMARKS
KANSAS CTY INT MOCLDY    65  59  81 SE13      29.93F
KANSAS C DTWN  PTCLDY    67  58  72 SE7       29.93F
LEE`S SUMMIT   MOCLDY    64  58  80 SE9       29.95F
ST JOSEPH      PTCLDY    64  59  83 SE8       29.93F
CHILLICOTHE      N/A     64  57  78 SE5       29.99F
KIRKSVILLE     PTCLDY    57  56  96 S6        30.01F

$$
MOZ066>068-077>081-088>096-101>105-030900-
...SOUTHWEST MISSOURI...

CITY           SKY/WX    TMP DP  RH WIND       PRES   REMARKS
SPRINGFIELD    PTCLDY    62  59  90 S13       30.00R
JOPLIN         CLEAR     67  64  90 SE7       29.96S

$$
MOZ032>034-039>042-045>050-055>058-069>072-030900-
...CENTRAL MISSOURI...

CITY           SKY/WX    TMP DP  RH WIND       PRES   REMARKS
COLUMBIA       PTCLDY    57  55  93 SE7       30.02S
JEFFERSON CITY PTCLDY    57  55  93 E3        30.02S
ROLLA          PTCLDY    55  54  96 S7        30.01S
SEDALIA        CLOUDY    62  57  83 SE6       30.00S
OSAGE BEACH    PTCLDY    57  54  88 SE7       30.01S

$$
MOZ051-052-059>065-030900-
...EAST CENTRAL MISSOURI...

CITY           SKY/WX    TMP DP  RH WIND       PRES   REMARKS
ST LOUIS INTL  PTCLDY    61  54  77 CALM      30.03F
SPIRIT OF STL  CLEAR     56  55  97 S3        30.02F
ST CHARLES     CLEAR     58  55  90 CALM      30.02F

$$
MOZ072>076-082>087-097>100-106>115-030900-
...SOUTH CENTRAL AND SOUTHEAST MISSOURI...

CITY           SKY/WX    TMP DP  RH WIND       PRES   REMARKS
CAPE GIRARDEAU CLOUDY    61  60  97 CALM      30.03S
FARMINGTON     CLOUDY    59  55  88 SE5       30.06F
POPLAR BLUFF   PTCLDY    58  56  93 CALM      30.02S FOG
WEST PLAINS    MOCLDY    55  53  93 SE3       30.05S

$$



USA.gov is the U.S. government's official web portal to all federal, state and local government web resources and services.